Historyczne dane pomiarowe

Dodano dane terminowe – wersja testowa.

Dane z okresu 1951-2019

Wersja bazy: 1.34 [2019-03-16, lista zmian], aktualizacja planowana na 2019-04-15

Dane meteo z obszaru Polski uzyskane na podstawie danych udostępnionych przez Instytut Meteorologii i Gospodarki Wodnej – Państwowy Instytut Badawczy.

 

Wybierz Datę:    

       

TemperaturaWilgotnośćWiatrCiśnienieOpadyŚniegCzas trwania zjawisk
 Stacja t tx tn tng RH VA  wxwx mslp ppp RRR   cm mm wxwxwxwxwxwxwx
2019-06-30 24.0 34.4 12.6 10.4 56.0 14.9- 1.4--1017.5 983.6 0.0 0.0 0.0x- 14.9-------
2019-06-29 20.2 25.8 14.6 12.8 49.0 11.2- 1.9--1020.9 986.4 0.0 0.0 0.0x- 14.3-------
2019-06-28 18.0 23.1 14.6 12.3 64.0 13.1- 2.1--1020.3 985.6 0.0 0.0 0.0x- 8.6-------
2019-06-27 24.9 29.9 22.8 20.9 53.6 16.7- 2.8--1016.5 982.7 0.0 0.0 0.0x- 14.1-------
2019-06-26 26.3 33.9 17.8 15.7 64.3 20.7- 1.3--1022.0 988.1 0.0 0.0 0.0x- 14.6-------
2019-06-25 23.5 30.9 15.5 14.0 72.8 20.2- 1.4--1024.6 990.4 0.0 0.0 0.0x- 12.4-------
2019-06-24 21.3 24.6 18.0 16.0 69.6 17.4- 2.1--1022.9 988.5 0.0 0.0 0.0x- 4.6-------
2019-06-23 20.5 24.9 16.8 16.0 75.9 17.9- 1.5--1018.7 984.3 0.0 0.0 0.0x- 2.4-------
2019-06-22 19.4 24.7 15.8 14.7 87.3 19.5- 0.9--1019.5 985.0 5.8 3.6 2.2x- 4.9-------
2019-06-21 20.9 27.4 17.3 16.6 79.5 19.1- 1.0--1015.1 980.9 0.7 0.7 0.0x- 5.9-------
2019-06-20 20.0 27.1 16.4 15.6 84.3 19.4- 1.9--1012.3 978.1 10.6 10.1 0.5x- 3.2-------
2019-06-19 20.5 28.9 14.8 14.2 79.0 18.5- 1.3--1014.0 979.8 0.7 0.7 0.0x- 6.6-------
2019-06-18 17.8 23.8 10.8 9.7 79.0 16.0- 1.6--1019.2 984.5 0.0 0.0 0.0x- 3.3-------
2019-06-17 17.7 21.0 16.7 17.1 78.1 15.8- 1.1--1021.1 986.3 0.1 0.1 0.0x- 4.2-------
2019-06-16 22.6 29.8 18.9 17.1 75.9 20.2- 1.8--1015.1 981.2 5.1 3.8 1.3x- 9.3-------
2019-06-15 26.0 34.1 18.1 17.4 64.4 20.2- 1.5--1014.0 980.4 0.0 0.0 0.0x- 10.7-------
2019-06-14 24.9 30.3 19.3 17.8 67.5 21.0- 1.6--1017.3 983.5 0.0 0.0 0.0x- 13.6-------
2019-06-13 26.1 33.7 17.3 15.5 55.5 17.6- 1.5--1013.3 979.8 0.0 0.0 0.0x- 14.5-------
2019-06-12 25.3 32.3 16.2 15.1 52.4 15.7- 2.3--1013.1 979.5 0.0 0.0 0.0x- 14.3-------
2019-06-11 25.1 31.6 16.1 14.6 55.3 16.1- 2.4--1014.0 980.3 0.0 0.0 0.0x- 15.2-------
2019-06-10 23.4 31.9 14.3 12.0 64.0 16.8- 1.6--1017.4 983.4 0.1 0.1 0.0x- 14.7-------
2019-06-09 20.7 25.1 17.2 16.2 63.4 15.4- 1.8--1024.8 990.2 0.0 0.0 0.0x- 10.8-------
2019-06-08 21.8 28.8 14.2 12.6 67.6 16.8- 1.4--1018.5 984.2 0.0 0.0 0.0x- 11.9-------
2019-06-07 20.6 26.3 14.9 12.7 71.5 17.0- 1.4--1014.9 980.7 0.0 0.0 0.0x- 10.5-------
2019-06-06 19.8 25.5 12.7 11.1 64.1 14.3- 1.6--1012.4 978.2 2.8 0.0 2.8x- 12.4-------
2019-06-05 20.3 26.8 13.2 11.5 68.5 15.3- 1.9--1011.5 977.3 0.0 0.0 0.0x- 9.3-------
2019-06-04 20.3 27.2 12.9 10.9 68.1 15.4- 1.8--1013.9 979.7 0.0 0.0 0.0x- 14.2-------
2019-06-03 19.8 26.5 11.1 9.7 65.9 14.3- 1.5--1017.7 983.3 0.0 0.0 0.0x- 14.7-------
2019-06-02 18.9 25.4 12.1 10.6 71.1 14.7- 1.4--1019.5 985.0 0.0 0.0 0.0x- 12.0-------
2019-06-01 15.8 23.7 8.5 6.8 80.6 14.5- 1.1--1021.8 986.8 3.1 3.1 0.0x- 8.3-------
2019-05-31 14.1 20.5 8.7 8.9 74.8 11.5- 1.1--1024.1 988.8 0.1 0.1 0.0x- 7.8-------
2019-05-30 9.6 11.2 8.5 9.0 93.4 11.1- 1.4--1023.7 987.9 10.2 7.3 2.9x- 0.0-------
2019-05-29 12.1 18.8 10.9 9.6 88.0 12.4- 1.3--1014.8 979.5 2.6 0.5 2.1x- 0.1-------
2019-05-28 18.8 24.0 14.2 11.5 66.5 14.1- 2.5--1005.8 971.7 0.3 0.3 0.0x- 8.4-------
2019-05-27 18.1 24.2 10.1 7.5 71.6 14.3- 1.9--1011.8 977.3 0.8 0.0 0.8x- 6.9-------
2019-05-26 16.4 22.5 10.4 7.9 77.6 14.3- 1.0--1014.4 979.7 5.5 5.5 0.0x- 7.0-------
2019-05-25 16.3 22.0 11.8 11.6 72.3 12.7- 1.3--1013.3 978.6 0.0 0.0 0.0x- 9.2-------
2019-05-24 12.0 13.7 10.3 10.3 93.0 13.0- 1.3--1014.3 979.0 0.3 0.3 0.0x- 0.0-------
2019-05-23 12.3 13.5 11.4 11.1 91.3 13.0- 2.6--1011.9 976.8 23.7 6.6 17.1x- 0.0-------
2019-05-22 13.7 17.3 12.2 11.6 87.1 13.5- 1.5--1004.9 970.2 17.9 5.2 12.7x- 0.6-------
2019-05-21 12.5 19.4 9.7 7.6 89.1 13.0- 1.5--1004.7 969.9 34.3 22.4 11.9x- 0.0-------
2019-05-20 17.5 22.6 12.5 10.7 64.8 12.6- 2.1--1004.7 970.5 0.0 0.0 0.0x- 6.2-------
2019-05-19 17.2 25.2 9.0 6.5 68.4 12.8- 1.4--1007.0 972.6 0.7 0.7 0.0x- 11.1-------
2019-05-18 17.6 25.1 9.8 8.2 63.5 11.9- 1.6--1009.7 975.3 0.0 0.0 0.0x- 12.3-------
2019-05-17 16.1 22.4 10.8 10.0 69.9 12.2- 1.5--1011.7 977.1 0.0 0.0 0.0x- 8.8-------
2019-05-16 13.2 19.2 9.0 8.8 81.5 12.1- 1.0--1013.8 978.7 0.2 0.2 0.0x- 4.6-------
2019-05-15 8.0 9.7 6.2 6.2 97.1 10.5- 1.0--1017.2 981.4 7.3 4.8 2.5x- 0.0-------
2019-05-14 4.8 8.1 1.3 1.8 94.0 8.2- 1.4--1025.5 989.0 14.0 9.1 4.9x- 0.0-------
2019-05-13 7.5 9.8 6.7 7.4 81.9 8.5- 1.9--1030.1 993.7 7.1 0.3 6.8x- 0.0-------
2019-05-12 13.0 21.9 8.0 5.5 78.1 11.4- 1.6--1019.6 984.3 6.5 6.0 0.5x- 5.3-------
2019-05-11 13.9 20.3 8.4 6.1 68.5 10.4- 0.9--1013.2 978.3 0.0 0.0 0.0x- 8.4-------
2019-05-10 11.2 16.8 7.5 7.1 84.0 11.0- 1.3--1008.6 973.5 3.7 3.7 0.0x- 4.9-------
2019-05-09 9.7 12.5 8.6 3.9 69.5 8.3- 2.0--1007.0 971.8 4.8 3.3 1.5x- 0.0-------
2019-05-08 9.7 15.9 1.7 -0.3 59.6 6.6- 1.6--1015.5 979.9 0.0 0.0 0.0x- 9.7-------
2019-05-07 8.6 11.6 4.9 4.6 56.8 6.3- 2.8--1016.1 980.4 0.0 0.0 0.0x- 3.4-------
2019-05-06 5.8 7.5 4.4 4.4 73.9 6.7- 1.6--1013.4 977.5 0.1 0.1 0.0x- 0.0-------
2019-05-05 5.6 11.4 4.3 4.3 92.1 8.4- 1.6--1010.7 974.8 10.3 7.6 2.7x- 0.0-------
2019-05-04 9.3 16.4 2.8 1.0 75.0 8.4- 1.1--1007.1 971.8 1.3 0.0 1.3x- 8.9-------
2019-05-03 9.4 15.9 7.8 5.3 85.5 10.1- 1.0--1007.4 972.1 10.3 10.1 0.2x- 1.5-------
2019-05-02 14.2 20.1 8.7 5.0 61.5 9.3- 3.1--1005.6 971.0 0.0 0.0 0.0x- 8.9-------
140.9 ms

 

Źródłem pochodzenia danych jest Instytut Meteorologii i Gospodarki Wodnej – Państwowy Instytut Badawczy. Dane Instytutu Meteorologii i Gospodarki Wodnej – Państwowego Instytutu Badawczego zostały przetworzone.

Dane źródłowe można odnaleźć na stronie https://dane.imgw.pl